QPF
0.04 0.04 0.04 0.05 0.05 0.04 0.04 0.06 0.06 0.07 0.08 0.08 0.11 0.12 0.07 0.05 0.04 0.05 0.06 0.05 0.05 0.06 0.07 0.11 0.10 0.09 0.18 0.20 0.11 0.10 0.09 0.09 0.09 0.10 0.10 0.10 0.12 0.13 0.08 0.05 0.04 0.02 0.03
0.03 0.04 0.04 0.03 0.03 0.03 0.03 0.03 0.04 0.06 0.06 0.08 0.10 0.11 0.08 0.05 0.05 0.04 0.05 0.06 0.06 0.06 0.07 0.09 0.09 0.08 0.09 0.14 0.12 0.10 0.08 0.07 0.08 0.11 0.12 0.12 0.10 0.11 0.12 0.09 0.07 0.05 0.04
0.02 0.03 0.04 0.03 0.02 0.04 0.05 0.04 0.05 0.05 0.06 0.07 0.10 0.11 0.11 0.07 0.06 0.05 0.04 0.05 0.06 0.08 0.09 0.07 0.07 0.09 0.09 0.09 0.10 0.08 0.07 0.06 0.07 0.10 0.13 0.11 0.09 0.08 0.10 0.09 0.08 0.07 0.06
0.01 0.02 0.03 0.03 0.03 0.04 0.05 0.05 0.04 0.05 0.06 0.08 0.09 0.08 0.08 0.08 0.08 0.06 0.05 0.07 0.06 0.08 0.08 0.06 0.05 0.06 0.08 0.09 0.08 0.08 0.07 0.07 0.08 0.09 0.10 0.09 0.08 0.07 0.08 0.09 0.11 0.09 0.07
0.01 0.02 0.03 0.03 0.04 0.05 0.05 0.05 0.04 0.05 0.06 0.05 0.06 0.07 0.06 0.07 0.09 0.08 0.07 0.07 0.07 0.08 0.09 0.08 0.06 0.06 0.07 0.09 0.08 0.09 0.09 0.10 0.10 0.09 0.10 0.09 0.10 0.09 0.08 0.11 0.19 0.16 0.09
0.02 0.01 0.02 0.03 0.04 0.04 0.04 0.03 0.03 0.05 0.05 0.04 0.05 0.06 0.06 0.06 0.08 0.07 0.08 0.09 0.09 0.10 0.08 0.06 0.06 0.06 0.06 0.06 0.07 0.09 0.11 0.11 0.11 0.11 0.13 0.14 0.12 0.10 0.10 0.13 0.21 0.21 0.15
0.02 0.02 0.02 0.04 0.04 0.04 0.04 0.04 0.05 0.06 0.05 0.04 0.04 0.05 0.05 0.05 0.05 0.06 0.07 0.09 0.09 0.06 0.06 0.05 0.05 0.05 0.04 0.04 0.06 0.09 0.13 0.15 0.14 0.17 0.20 0.21 0.18 0.13 0.11 0.14 0.21 0.23 0.18
0.02 0.02 0.02 0.04 0.06 0.06 0.06 0.06 0.06 0.07 0.07 0.06 0.06 0.06 0.07 0.06 0.06 0.06 0.06 0.06 0.08 0.06 0.05 0.05 0.06 0.06 0.04 0.04 0.06 0.09 0.17 0.16 0.15 0.15 0.13 0.11 0.10 0.10 0.11 0.16 0.22 0.22 0.16
0.03 0.03 0.03 0.03 0.04 0.05 0.06 0.06 0.05 0.06 0.07 0.07 0.05 0.05 0.07 0.07 0.07 0.06 0.06 0.06 0.08 0.08 0.07 0.06 0.06 0.06 0.05 0.05 0.06 0.07 0.09 0.11 0.12 0.09 0.07 0.08 0.09 0.10 0.12 0.14 0.17 0.19 0.17
0.05 0.04 0.04 0.03 0.04 0.05 0.09 0.09 0.06 0.08 0.09 0.08 0.07 0.06 0.06 0.07 0.08 0.07 0.07 0.08 0.09 0.08 0.08 0.07 0.06 0.05 0.07 0.06 0.06 0.07 0.10 0.14 0.14 0.09 0.07 0.06 0.07 0.11 0.17 0.18 0.16 0.15 0.16
0.09 0.08 0.05 0.04 0.05 0.05 0.11 0.15 0.12 0.10 0.08 0.08 0.10 0.08 0.07 0.07 0.07 0.07 0.06 0.08 0.13 0.13 0.13 0.10 0.07 0.07 0.08 0.08 0.08 0.09 0.13 0.17 0.13 0.09 0.07 0.05 0.04 0.08 0.14 0.19 0.21 0.18 0.15
0.07 0.06 0.04 0.03 0.03 0.04 0.08 0.13 0.11 0.08 0.09 0.10 0.09 0.08 0.08 0.09 0.09 0.07 0.05 0.06 0.10 0.13 0.15 0.17 0.15 0.11 0.09 0.08 0.13 0.20 0.20 0.17 0.11 0.07 0.05 0.05 0.05 0.08 0.14 0.15 0.16 0.16 0.14
0.02 0.03 0.04 0.04 0.04 0.05 0.06 0.07 0.08 0.08 0.08 0.08 0.07 0.07 0.08 0.08 0.07 0.07 0.09 0.08 0.09 0.10 0.12 0.18 0.23 0.16 0.09 0.08 0.11 0.17 0.19 0.16 0.11 0.08 0.06 0.05 0.05 0.07 0.11 0.13 0.14 0.15 0.14
0.01 0.01 0.02 0.03 0.04 0.05 0.06 0.06 0.06 0.05 0.06 0.07 0.07 0.06 0.06 0.06 0.05 0.07 0.08 0.08 0.10 0.11 0.11 0.18 0.25 0.19 0.11 0.08 0.09 0.11 0.11 0.11 0.10 0.08 0.06 0.06 0.05 0.07 0.08 0.10 0.10 0.13 0.16
0.01 0.01 0.02 0.02 0.02 0.03 0.03 0.03 0.03 0.03 0.05 0.06 0.06 0.07 0.06 0.05 0.04 0.06 0.07 0.07 0.06 0.07 0.09 0.17 0.19 0.17 0.15 0.10 0.08 0.06 0.07 0.07 0.07 0.06 0.06 0.06 0.07 0.07 0.06 0.06 0.07 0.10 0.14
0.01 0.01 0.01 0.02 0.03 0.03 0.02 0.02 0.02 0.02 0.04 0.05 0.06 0.06 0.06 0.04 0.05 0.05 0.05 0.04 0.03 0.04 0.07 0.09 0.12 0.13 0.11 0.07 0.05 0.05 0.07 0.08 0.06 0.06 0.06 0.07 0.07 0.07 0.07 0.07 0.08 0.11 0.13
0.01 0.02 0.02 0.01 0.04 0.04 0.02 0.01 0.02 0.02 0.02 0.04 0.06 0.06 0.04 0.03 0.05 0.06 0.04 0.04 0.04 0.04 0.04 0.05 0.07 0.07 0.06 0.04 0.05 0.05 0.04 0.06 0.07 0.06 0.05 0.05 0.05 0.06 0.06 0.08 0.13 0.14 0.14
0.02 0.02 0.01 0.00 0.02 0.03 0.03 0.03 0.03 0.03 0.03 0.03 0.03 0.04 0.03 0.02 0.03 0.04 0.04 0.04 0.05 0.04 0.04 0.04 0.04 0.05 0.05 0.05 0.04 0.03 0.02 0.03 0.04 0.04 0.03 0.03 0.03 0.04 0.05 0.07 0.10 0.10 0.10
0.02 0.01 0.01 0.01 0.02 0.04 0.04 0.03 0.03 0.03 0.03 0.03 0.03 0.03 0.02 0.02 0.02 0.04 0.05 0.06 0.06 0.04 0.06 0.05 0.05 0.04 0.04 0.03 0.03 0.03 0.02 0.02 0.02 0.03 0.03 0.02 0.02 0.03 0.05 0.05 0.05 0.05 0.06
0.01 0.01 0.01 0.01 0.02 0.03 0.04 0.04 0.03 0.03 0.03 0.03 0.05 0.05 0.03 0.02 0.02 0.03 0.03 0.04 0.04 0.04 0.06 0.08 0.06 0.05 0.03 0.04 0.02 0.01 0.01 0.01 0.01 0.01 0.02 0.01 0.02 0.02 0.04 0.05 0.05 0.05 0.03
0.01 0.01 0.01 0.02 0.03 0.03 0.04 0.04 0.04 0.04 0.05 0.05 0.06 0.06 0.04 0.03 0.03 0.04 0.03 0.05 0.05 0.05 0.06 0.07 0.06 0.05 0.03 0.03 0.04 0.02 0.01 0.01 0.01 0.01 0.01 0.02 0.02 0.02 0.03 0.04 0.05 0.06 0.05
0.01 0.01 0.01 0.02 0.02 0.03 0.03 0.04 0.03 0.04 0.05 0.04 0.04 0.05 0.04 0.04 0.03 0.03 0.04 0.05 0.05 0.05 0.06 0.05 0.05 0.06 0.04 0.03 0.04 0.04 0.03 0.02 0.01 0.00 0.01 0.01 0.02 0.03 0.04 0.03 0.04 0.05 0.05
0.01 0.01 0.01 0.01 0.02 0.02 0.02 0.02 0.03 0.03 0.03 0.02 0.03 0.03 0.03 0.03 0.02 0.02 0.04 0.05 0.05 0.04 0.05 0.06 0.05 0.05 0.05 0.04 0.04 0.04 0.03 0.02 0.02 0.01 0.01 0.01 0.01 0.02 0.03 0.02 0.02 0.03 0.04
0.01 0.01 0.01 0.02 0.02 0.02 0.02 0.02 0.03 0.02 0.02 0.02 0.03 0.02 0.02 0.02 0.02 0.03 0.03 0.04 0.04 0.03 0.03 0.03 0.03 0.04 0.04 0.04 0.03 0.04 0.03 0.03 0.03 0.03 0.02 0.01 0.00 0.01 0.01 0.01 0.02 0.03 0.02
0.01 0.01 0.01 0.02 0.02 0.02 0.03 0.03 0.03 0.02 0.02 0.02 0.01 0.01 0.02 0.02 0.03 0.02 0.02 0.02 0.02 0.02 0.02 0.02 0.02 0.03 0.04 0.04 0.04 0.03 0.03 0.02 0.03 0.03 0.03 0.03 0.01 0.01 0.01 0.01 0.01 0.01 0.01
0.01 0.01 0.01 0.01 0.01 0.02 0.03 0.05 0.05 0.04 0.04 0.04 0.03 0.02 0.02 0.02 0.02 0.02 0.02 0.02 0.02 0.02 0.02 0.03 0.03 0.02 0.03 0.04 0.04 0.04 0.03 0.02 0.03 0.03 0.03 0.03 0.03 0.02 0.01 0.01 0.01 0.01 0.01
MSLP
1008.55 1008.36 1008.47 1008.82 1009.31 1009.83 1010.27 1010.55 1010.64 1010.57 1010.40 1010.22 1010.12 1010.15 1010.32 1010.61 1010.97 1011.35 1011.70 1012.00 1012.28 1012.55 1012.86 1013.23 1013.66 1014.12 1014.59 1015.01 1015.34 1015.57 1015.71 1015.80 1015.88 1016.01 1016.21 1016.48 1016.81 1017.16 1017.48 1017.74 1017.92 1018.02 1018.09
1008.34 1008.27 1008.46 1008.89 1009.44 1010.00 1010.46 1010.75 1010.86 1010.81 1010.66 1010.50 1010.42 1010.45 1010.61 1010.87 1011.19 1011.52 1011.83 1012.10 1012.36 1012.63 1012.95 1013.33 1013.77 1014.25 1014.72 1015.14 1015.46 1015.69 1015.83 1015.93 1016.03 1016.19 1016.41 1016.71 1017.06 1017.41 1017.73 1017.98 1018.15 1018.25 1018.32
1008.00 1008.07 1008.40 1008.93 1009.56 1010.17 1010.68 1011.00 1011.13 1011.10 1010.97 1010.82 1010.72 1010.72 1010.83 1011.02 1011.27 1011.53 1011.79 1012.04 1012.30 1012.59 1012.95 1013.39 1013.88 1014.40 1014.90 1015.32 1015.65 1015.87 1016.01 1016.11 1016.22 1016.39 1016.63 1016.95 1017.30 1017.66 1017.98 1018.23 1018.40 1018.51 1018.59
1007.63 1007.84 1008.30 1008.95 1009.67 1010.35 1010.91 1011.28 1011.44 1011.43 1011.30 1011.14 1011.01 1010.95 1010.98 1011.09 1011.25 1011.44 1011.65 1011.89 1012.17 1012.53 1012.97 1013.49 1014.06 1014.64 1015.18 1015.62 1015.94 1016.15 1016.28 1016.37 1016.48 1016.65 1016.89 1017.21 1017.57 1017.93 1018.25 1018.50 1018.68 1018.81 1018.90
1007.31 1007.65 1008.23 1008.97 1009.77 1010.52 1011.13 1011.54 1011.74 1011.75 1011.62 1011.45 1011.28 1011.16 1011.10 1011.12 1011.19 1011.32 1011.51 1011.76 1012.09 1012.53 1013.07 1013.70 1014.36 1015.01 1015.59 1016.04 1016.36 1016.55 1016.65 1016.72 1016.80 1016.96 1017.20 1017.51 1017.86 1018.22 1018.53 1018.79 1018.99 1019.13 1019.24
1007.14 1007.57 1008.22 1009.02 1009.88 1010.67 1011.31 1011.75 1011.97 1012.01 1011.90 1011.72 1011.52 1011.35 1011.24 1011.18 1011.20 1011.29 1011.47 1011.75 1012.15 1012.69 1013.33 1014.06 1014.81 1015.52 1016.12 1016.57 1016.86 1017.02 1017.08 1017.11 1017.17 1017.31 1017.53 1017.83 1018.18 1018.53 1018.84 1019.10 1019.30 1019.45 1019.59
1007.16 1007.62 1008.29 1009.11 1009.97 1010.76 1011.41 1011.87 1012.11 1012.17 1012.10 1011.93 1011.74 1011.56 1011.42 1011.34 1011.33 1011.41 1011.61 1011.93 1012.41 1013.02 1013.76 1014.56 1015.36 1016.09 1016.69 1017.12 1017.37 1017.48 1017.50 1017.50 1017.53 1017.66 1017.87 1018.17 1018.51 1018.85 1019.16 1019.41 1019.61 1019.77 1019.91
1007.35 1007.79 1008.44 1009.22 1010.03 1010.79 1011.41 1011.86 1012.12 1012.22 1012.18 1012.07 1011.92 1011.78 1011.66 1011.60 1011.61 1011.71 1011.95 1012.32 1012.85 1013.52 1014.30 1015.14 1015.95 1016.66 1017.22 1017.60 1017.79 1017.85 1017.83 1017.81 1017.84 1017.96 1018.18 1018.48 1018.83 1019.17 1019.47 1019.71 1019.90 1020.05 1020.19
1007.63 1008.04 1008.63 1009.34 1010.08 1010.76 1011.33 1011.75 1012.02 1012.15 1012.17 1012.13 1012.07 1012.00 1011.96 1011.96 1012.02 1012.18 1012.45 1012.87 1013.43 1014.12 1014.90 1015.71 1016.48 1017.14 1017.63 1017.93 1018.07 1018.08 1018.03 1018.00 1018.04 1018.19 1018.44 1018.76 1019.12 1019.47 1019.76 1019.99 1020.16 1020.28 1020.40
1007.91 1008.29 1008.82 1009.45 1010.09 1010.68 1011.18 1011.56 1011.83 1011.99 1012.08 1012.14 1012.18 1012.22 1012.28 1012.37 1012.51 1012.73 1013.05 1013.49 1014.05 1014.73 1015.47 1016.21 1016.90 1017.47 1017.87 1018.10 1018.17 1018.15 1018.09 1018.08 1018.15 1018.34 1018.64 1019.00 1019.39 1019.74 1020.04 1020.25 1020.38 1020.47 1020.55
1008.07 1008.46 1008.96 1009.53 1010.09 1010.60 1011.02 1011.36 1011.61 1011.80 1011.96 1012.11 1012.26 1012.42 1012.59 1012.78 1013.01 1013.29 1013.66 1014.11 1014.65 1015.28 1015.95 1016.61 1017.20 1017.66 1017.97 1018.12 1018.15 1018.11 1018.07 1018.08 1018.20 1018.45 1018.80 1019.21 1019.62 1019.99 1020.28 1020.47 1020.58 1020.63 1020.65
1008.05 1008.49 1009.01 1009.56 1010.08 1010.53 1010.90 1011.19 1011.43 1011.64 1011.85 1012.08 1012.33 1012.60 1012.88 1013.17 1013.48 1013.82 1014.21 1014.66 1015.18 1015.75 1016.34 1016.91 1017.40 1017.77 1018.00 1018.09 1018.09 1018.05 1018.02 1018.08 1018.25 1018.54 1018.93 1019.38 1019.81 1020.20 1020.48 1020.66 1020.73 1020.75 1020.73
1007.83 1008.38 1008.97 1009.55 1010.06 1010.49 1010.83 1011.10 1011.33 1011.56 1011.80 1012.09 1012.41 1012.76 1013.13 1013.50 1013.88 1014.26 1014.68 1015.13 1015.62 1016.14 1016.66 1017.15 1017.56 1017.86 1018.03 1018.09 1018.08 1018.04 1018.03 1018.11 1018.31 1018.64 1019.05 1019.51 1019.95 1020.33 1020.61 1020.77 1020.83 1020.82 1020.77
1007.43 1008.13 1008.84 1009.50 1010.06 1010.50 1010.84 1011.11 1011.34 1011.57 1011.84 1012.16 1012.53 1012.94 1013.36 1013.78 1014.21 1014.63 1015.06 1015.51 1015.98 1016.46 1016.94 1017.38 1017.74 1018.00 1018.14 1018.18 1018.17 1018.13 1018.14 1018.23 1018.43 1018.74 1019.14 1019.57 1020.00 1020.36 1020.62 1020.78 1020.83 1020.80 1020.74
1006.96 1007.82 1008.66 1009.43 1010.06 1010.56 1010.93 1011.21 1011.45 1011.69 1011.98 1012.31 1012.70 1013.13 1013.58 1014.04 1014.49 1014.93 1015.37 1015.83 1016.29 1016.76 1017.22 1017.63 1017.97 1018.22 1018.35 1018.40 1018.38 1018.34 1018.34 1018.40 1018.56 1018.83 1019.16 1019.54 1019.91 1020.23 1020.47 1020.62 1020.67 1020.66 1020.60
1006.53 1007.52 1008.49 1009.35 1010.07 1010.64 1011.06 1011.38 1011.64 1011.90 1012.20 1012.54 1012.93 1013.36 1013.82 1014.29 1014.74 1015.20 1015.65 1016.12 1016.59 1017.06 1017.51 1017.92 1018.26 1018.51 1018.65 1018.70 1018.68 1018.62 1018.59 1018.60 1018.68 1018.85 1019.09 1019.37 1019.66 1019.91 1020.12 1020.25 1020.32 1020.33 1020.30
1006.25 1007.32 1008.36 1009.30 1010.10 1010.72 1011.20 1011.57 1011.88 1012.17 1012.47 1012.82 1013.21 1013.64 1014.09 1014.55 1015.01 1015.46 1015.93 1016.39 1016.87 1017.34 1017.80 1018.21 1018.56 1018.81 1018.96 1019.01 1018.98 1018.90 1018.81 1018.75 1018.74 1018.79 1018.90 1019.06 1019.24 1019.41 1019.56 1019.68 1019.76 1019.80 1019.81
1006.23 1007.29 1008.35 1009.31 1010.14 1010.82 1011.35 1011.77 1012.12 1012.45 1012.78 1013.14 1013.53 1013.95 1014.39 1014.84 1015.29 1015.74 1016.20 1016.66 1017.14 1017.61 1018.06 1018.47 1018.81 1019.06 1019.21 1019.25 1019.21 1019.10 1018.96 1018.82 1018.71 1018.64 1018.62 1018.64 1018.70 1018.78 1018.86 1018.94 1019.02 1019.09 1019.14
1006.50 1007.49 1008.48 1009.41 1010.23 1010.92 1011.48 1011.96 1012.36 1012.74 1013.10 1013.48 1013.88 1014.29 1014.72 1015.15 1015.59 1016.03 1016.47 1016.93 1017.38 1017.83 1018.27 1018.65 1018.98 1019.21 1019.35 1019.38 1019.32 1019.19 1019.01 1018.81 1018.61 1018.44 1018.29 1018.19 1018.12 1018.09 1018.10 1018.13 1018.18 1018.26 1018.33
1007.05 1007.90 1008.77 1009.60 1010.37 1011.04 1011.63 1012.14 1012.59 1013.02 1013.43 1013.83 1014.24 1014.66 1015.07 1015.49 1015.90 1016.32 1016.74 1017.17 1017.60 1018.02 1018.41 1018.76 1019.05 1019.25 1019.37 1019.39 1019.33 1019.19 1018.99 1018.76 1018.51 1018.25 1018.01 1017.79 1017.61 1017.47 1017.38 1017.34 1017.34 1017.40 1017.47
1007.83 1008.49 1009.20 1009.90 1010.58 1011.21 1011.79 1012.33 1012.83 1013.30 1013.76 1014.19 1014.62 1015.03 1015.43 1015.83 1016.22 1016.62 1017.01 1017.40 1017.79 1018.16 1018.51 1018.81 1019.05 1019.22 1019.31 1019.33 1019.27 1019.14 1018.96 1018.72 1018.45 1018.16 1017.85 1017.55 1017.26 1017.01 1016.81 1016.67 1016.61 1016.60 1016.65
1008.74 1009.21 1009.73 1010.29 1010.86 1011.44 1012.00 1012.56 1013.10 1013.61 1014.10 1014.56 1014.99 1015.40 1015.79 1016.17 1016.54 1016.90 1017.27 1017.63 1017.98 1018.30 1018.59 1018.84 1019.03 1019.16 1019.24 1019.25 1019.21 1019.11 1018.96 1018.76 1018.51 1018.21 1017.86 1017.50 1017.12 1016.77 1016.45 1016.20 1016.03 1015.95 1015.94
1009.65 1009.95 1010.32 1010.74 1011.21 1011.72 1012.27 1012.83 1013.40 1013.94 1014.46 1014.93 1015.37 1015.76 1016.13 1016.49 1016.84 1017.18 1017.52 1017.86 1018.17 1018.46 1018.71 1018.91 1019.06 1019.16 1019.21 1019.23 1019.21 1019.15 1019.05 1018.90 1018.68 1018.40 1018.04 1017.64 1017.19 1016.74 1016.31 1015.94 1015.65 1015.47 1015.37
1010.48 1010.64 1010.88 1011.19 1011.58 1012.05 1012.58 1013.14 1013.73 1014.29 1014.82 1015.30 1015.72 1016.10 1016.45 1016.78 1017.10 1017.43 1017.76 1018.08 1018.39 1018.65 1018.87 1019.04 1019.16 1019.24 1019.28 1019.29 1019.29 1019.26 1019.21 1019.10 1018.93 1018.67 1018.32 1017.89 1017.39 1016.85 1016.32 1015.83 1015.43 1015.13 1014.95
1011.14 1011.22 1011.36 1011.60 1011.94 1012.37 1012.90 1013.47 1014.06 1014.64 1015.17 1015.64 1016.04 1016.39 1016.71 1017.01 1017.32 1017.64 1017.97 1018.30 1018.60 1018.87 1019.09 1019.24 1019.33 1019.38 1019.41 1019.41 1019.41 1019.40 1019.37 1019.29 1019.15 1018.92 1018.58 1018.13 1017.59 1017.00 1016.39 1015.80 1015.30 1014.90 1014.62
1011.60 1011.64 1011.73 1011.93 1012.24 1012.67 1013.20 1013.78 1014.38 1014.96 1015.48 1015.92 1016.29 1016.61 1016.90 1017.18 1017.47 1017.79 1018.13 1018.47 1018.80 1019.08 1019.30 1019.45 1019.53 1019.56 1019.55 1019.53 1019.51 1019.49 1019.45 1019.39 1019.26 1019.04 1018.70 1018.26 1017.70 1017.07 1016.41 1015.76 1015.18 1014.71 1014.36
Thickness
5798 5799 5792 5791 5791 5790 5790 5789 5789 5789 5788 5787 5787 5787 5787 5786 5786 5785 5783 5782 5781 5780 5778 5777 5776 5775 5774 5773 5771 5770 5769 5767 5766 5765 5764 5763 5762 5761 5760 5760 5760 5760 5758
5802 5799 5792 5791 5791 5790 5789 5789 5788 5788 5787 5786 5786 5785 5785 5785 5784 5783 5782 5781 5780 5779 5777 5776 5775 5774 5773 5772 5771 5769 5768 5767 5765 5764 5763 5762 5761 5760 5759 5759 5759 5760 5757
5803 5799 5794 5791 5790 5789 5788 5788 5788 5787 5786 5786 5785 5785 5784 5783 5783 5782 5781 5780 5779 5778 5777 5776 5775 5773 5772 5771 5770 5769 5767 5766 5765 5764 5764 5765 5764 5760 5759 5758 5758 5757 5755
5803 5800 5796 5791 5790 5789 5788 5787 5787 5786 5786 5785 5784 5784 5783 5782 5782 5781 5780 5779 5778 5778 5777 5776 5775 5773 5772 5771 5770 5768 5767 5766 5765 5765 5767 5768 5766 5762 5759 5758 5757 5756 5754
5803 5801 5796 5791 5790 5789 5788 5787 5786 5786 5785 5784 5784 5783 5783 5782 5781 5780 5779 5778 5778 5777 5776 5775 5774 5773 5772 5771 5770 5768 5767 5766 5766 5767 5769 5768 5766 5762 5760 5758 5757 5755 5754
5803 5802 5796 5792 5790 5788 5787 5787 5786 5785 5785 5784 5784 5783 5782 5782 5781 5780 5779 5779 5778 5777 5776 5775 5774 5773 5772 5771 5770 5769 5768 5767 5768 5770 5769 5768 5767 5763 5760 5758 5757 5755 5754
5804 5802 5797 5791 5790 5788 5787 5786 5786 5785 5785 5784 5783 5783 5782 5782 5781 5780 5780 5779 5778 5777 5776 5775 5774 5773 5772 5771 5770 5769 5768 5768 5771 5771 5770 5769 5766 5762 5760 5758 5757 5755 5754
5805 5803 5797 5791 5790 5788 5787 5786 5786 5785 5784 5784 5783 5783 5782 5782 5782 5781 5780 5780 5779 5778 5777 5775 5774 5773 5772 5771 5771 5770 5770 5769 5772 5772 5771 5769 5765 5762 5760 5759 5757 5755 5754
5805 5803 5800 5796 5792 5789 5787 5787 5786 5785 5784 5784 5783 5783 5782 5782 5782 5781 5781 5780 5779 5778 5777 5775 5774 5773 5772 5772 5771 5770 5770 5770 5773 5772 5772 5770 5766 5762 5760 5759 5757 5756 5755
5804 5802 5801 5799 5796 5795 5792 5788 5786 5785 5785 5784 5784 5783 5783 5783 5782 5782 5782 5781 5780 5779 5778 5776 5775 5774 5773 5772 5771 5770 5770 5770 5773 5773 5772 5770 5766 5763 5760 5759 5758 5757 5756
5801 5801 5802 5800 5798 5797 5796 5792 5789 5787 5786 5785 5785 5783 5784 5786 5786 5785 5783 5781 5780 5779 5778 5777 5776 5774 5773 5773 5772 5771 5772 5774 5775 5774 5773 5769 5766 5764 5762 5760 5759 5757 5756
5798 5800 5802 5801 5800 5799 5797 5794 5792 5791 5789 5788 5787 5786 5786 5785 5785 5786 5783 5782 5781 5780 5779 5778 5777 5776 5775 5777 5775 5773 5776 5776 5775 5775 5773 5769 5767 5764 5762 5761 5759 5758 5757
5800 5801 5802 5801 5799 5799 5798 5796 5794 5792 5790 5789 5788 5786 5786 5786 5787 5786 5786 5784 5783 5782 5782 5781 5780 5779 5779 5778 5778 5777 5777 5778 5777 5776 5773 5769 5766 5764 5763 5762 5760 5759 5758
5802 5802 5803 5802 5799 5797 5797 5796 5795 5794 5792 5791 5788 5787 5787 5787 5787 5787 5785 5785 5784 5784 5783 5783 5781 5780 5778 5778 5778 5778 5777 5777 5776 5775 5772 5769 5766 5765 5763 5762 5761 5760 5758
5802 5802 5802 5801 5800 5798 5796 5795 5796 5794 5794 5791 5788 5787 5786 5787 5786 5787 5785 5784 5784 5784 5783 5782 5781 5780 5778 5778 5778 5778 5777 5776 5775 5774 5772 5769 5766 5765 5764 5763 5762 5761 5759
5805 5805 5804 5802 5800 5797 5796 5795 5795 5795 5792 5791 5789 5787 5785 5786 5785 5785 5783 5783 5784 5783 5783 5781 5781 5780 5779 5778 5778 5777 5777 5776 5775 5774 5773 5771 5768 5766 5764 5763 5762 5761 5759
5808 5807 5805 5803 5801 5798 5797 5796 5796 5795 5794 5792 5789 5787 5785 5785 5783 5783 5783 5783 5783 5782 5781 5781 5780 5780 5779 5779 5778 5777 5777 5776 5776 5774 5773 5771 5771 5768 5765 5764 5762 5761 5759
5811 5808 5807 5807 5803 5799 5797 5795 5796 5795 5793 5791 5789 5787 5785 5783 5782 5782 5782 5782 5781 5782 5782 5780 5779 5778 5777 5777 5777 5777 5778 5776 5775 5774 5773 5771 5770 5770 5767 5765 5762 5761 5759
5812 5809 5806 5805 5803 5801 5798 5795 5794 5793 5791 5791 5789 5787 5785 5782 5781 5781 5781 5780 5780 5781 5781 5780 5778 5777 5775 5775 5776 5776 5777 5776 5775 5774 5773 5772 5770 5768 5768 5765 5763 5761 5759
5814 5810 5807 5805 5803 5801 5799 5796 5795 5793 5792 5791 5789 5786 5784 5782 5781 5780 5780 5779 5780 5780 5778 5777 5775 5774 5774 5774 5776 5776 5777 5776 5776 5774 5773 5773 5770 5768 5768 5767 5765 5764 5760
5814 5810 5808 5805 5803 5800 5799 5796 5794 5792 5791 5791 5789 5786 5784 5782 5781 5779 5780 5778 5778 5778 5776 5777 5775 5773 5773 5773 5772 5772 5776 5777 5775 5773 5772 5771 5770 5768 5767 5765 5764 5763 5761
5814 5811 5809 5806 5804 5802 5800 5797 5795 5793 5793 5791 5789 5785 5783 5782 5780 5781 5778 5778 5777 5775 5774 5773 5771 5771 5772 5772 5768 5767 5767 5769 5770 5773 5770 5769 5768 5767 5766 5765 5762 5760 5759
5816 5813 5812 5808 5806 5803 5801 5799 5796 5792 5790 5789 5786 5785 5783 5781 5780 5778 5777 5777 5776 5776 5775 5772 5770 5768 5768 5769 5769 5764 5760 5759 5763 5768 5767 5766 5764 5763 5763 5762 5760 5758 5756
5820 5818 5814 5810 5806 5804 5801 5799 5794 5790 5787 5786 5785 5785 5783 5781 5779 5778 5777 5777 5776 5776 5773 5772 5771 5769 5766 5765 5766 5764 5762 5760 5755 5756 5762 5763 5762 5760 5759 5759 5758 5756 5753
5824 5821 5817 5812 5807 5804 5801 5797 5793 5791 5789 5788 5786 5783 5781 5781 5779 5778 5777 5776 5775 5775 5773 5770 5768 5767 5766 5764 5762 5761 5759 5758 5757 5752 5750 5753 5757 5758 5757 5755 5754 5753 5751
5825 5821 5818 5812 5807 5804 5801 5797 5793 5790 5787 5785 5782 5781 5781 5781 5779 5777 5776 5774 5773 5772 5770 5768 5766 5765 5763 5761 5760 5759 5757 5754 5752 5750 5747 5747 5749 5752 5753 5751 5750 5748 5747